User: anonymous   Login
Location: Theydon Bois
(51.6750°N, 0.1050°E)
Time: 18:52:00
(UTC+00:00)
Language:

ARGOS - Orbit

View from above orbital plane
View from above orbital plane
View from above satellite
View from above satellite

Ground track
Ground track

The orbit data is extracted from the following two-line orbital elements,

1 25634U 99008A   17346.76361059 -.00000020 +00000-0 +10894-4 0  9993
2 25634 098.5967 044.5434 0011059 056.6155 303.6078 14.19324154973329
Epoch (UTC): 12 December 2017 18:19:35
Eccentricity: 0.0011059
inclination: 98.5967°
perigee height: 819 km
apogee height: 835 km
right ascension of ascending node: 44.5434°
argument of perigee: 56.6155°
revolutions per day: 14.19324154
mean anomaly at epoch: 303.6078°
orbit number at epoch: 97332

The dashed part of the orbit path shows where the satellite is in the earth's shadow,  

DLR